Theta_e
331 322 317 313 304 299 293 300 317 317 319 325 328 325 323 326 322 314 339 346 349 345 360 363 365 362 360 359 359 359 359 360 360 361 362 361 362 362 361 361 361 362 360 359 361 362 362 361 359
329 319 310 306 299 292 293 305 316 320 322 324 326 326 326 323 334 334 340 348 348 347 357 361 365 364 361 360 359 359 359 359 359 360 361 361 361 362 362 362 362 361 358 358 359 361 361 361 361
316 317 306 303 297 296 294 306 317 319 323 324 324 329 329 326 333 340 345 349 350 349 356 360 365 364 361 360 359 360 359 359 359 359 360 360 360 361 361 362 362 361 358 358 359 360 360 360 360
312 304 302 300 299 300 300 308 321 320 323 324 328 327 334 341 337 340 342 346 346 351 356 360 365 364 362 360 359 360 359 359 359 358 358 359 359 358 359 361 361 361 360 358 359 359 359 359 358
302 299 294 295 297 304 304 315 321 320 322 327 330 328 330 337 338 338 339 341 346 347 354 360 364 364 363 361 359 360 360 360 360 358 358 359 359 359 359 360 362 362 361 360 359 360 359 359 359
299 296 290 287 293 301 302 310 310 306 317 319 326 322 332 337 334 334 337 336 348 339 352 357 363 363 362 362 361 360 361 361 361 360 360 360 360 360 360 359 360 362 362 362 361 360 359 358 357
296 292 289 289 290 296 303 303 303 307 309 308 318 305 335 333 337 337 334 339 337 338 351 353 358 361 361 362 360 360 359 359 360 360 360 360 360 359 360 360 359 360 360 360 360 360 359 358 357
296 293 290 288 291 294 300 303 303 308 306 311 313 304 307 339 338 337 341 339 338 348 350 351 353 357 356 357 361 361 360 359 359 359 359 360 360 359 359 358 359 359 359 359 359 359 359 357 356
295 290 287 289 293 295 298 302 304 305 305 308 309 308 315 343 340 338 335 339 343 347 347 348 352 351 352 354 357 358 360 360 360 359 359 356 352 353 355 357 357 360 360 359 358 357 358 357 356
294 289 291 297 298 293 296 300 300 302 304 304 308 321 341 338 337 333 332 336 338 330 330 332 345 346 346 354 352 348 351 355 354 353 352 351 350 349 353 355 358 359 359 359 358 357 357 356 346
292 292 297 299 299 300 298 298 299 300 299 304 306 312 337 336 336 334 336 328 333 328 329 329 341 332 334 344 345 341 337 345 349 351 351 351 352 348 349 349 349 351 355 353 355 352 351 346 343
297 297 299 300 300 298 297 300 300 299 300 308 308 311 325 338 325 324 326 325 323 322 324 327 330 330 330 330 330 329 329 329 338 344 346 347 347 346 345 346 346 345 347 348 348 349 347 345 344
295 297 298 299 296 297 301 299 298 298 305 306 307 308 311 311 309 315 318 320 320 320 322 324 326 325 326 326 326 326 326 327 327 328 336 343 345 344 344 344 342 344 345 347 346 346 346 345 344
297 297 296 297 296 297 298 299 300 301 304 305 305 305 305 308 311 313 317 320 319 320 320 321 319 320 320 320 319 321 324 325 324 324 326 330 340 342 342 341 339 340 344 346 347 344 344 343 343
298 296 298 297 297 296 300 297 299 303 304 303 304 303 304 304 312 316 320 320 320 319 319 317 318 318 316 316 318 319 317 319 319 321 323 327 329 331 335 342 342 343 342 343 343 343 339 338 339
297 294 290 297 298 299 298 291 299 302 302 302 301 302 304 304 314 317 320 320 319 318 317 318 322 316 315 315 315 317 315 314 316 317 319 324 322 321 326 334 343 345 341 340 339 337 337 336 335
292 289 290 295 299 298 296 292 299 302 301 300 301 300 302 302 307 317 320 319 318 316 313 315 317 316 314 314 316 316 314 315 316 316 317 321 321 322 323 323 331 342 339 335 335 336 335 334 334
288 288 290 290 296 297 294 294 298 300 301 300 301 300 301 302 306 317 319 318 317 316 313 314 316 316 314 314 314 314 312 313 315 314 317 319 319 322 321 321 325 332 336 333 334 334 333 335 334
294 291 291 293 296 294 292 292 295 300 302 302 302 303 303 299 304 316 317 317 316 316 314 314 314 315 313 312 310 312 310 311 312 313 316 317 318 319 319 321 324 328 332 335 334 333 331 329 336
294 291 290 293 296 293 292 292 297 300 300 302 303 303 304 307 310 313 314 314 314 314 314 315 314 315 313 313 314 313 311 311 313 313 314 316 317 318 320 320 321 323 324 330 333 331 327 328 333
292 291 291 291 294 294 292 289 293 299 301 304 303 304 306 305 306 309 310 310 312 312 313 314 314 314 314 314 312 311 310 309 309 310 312 314 316 319 319 319 318 318 320 322 326 329 326 325 328
289 295 295 294 290 285 291 282 289 294 296 300 301 301 302 305 308 310 310 311 311 311 313 312 313 313 316 313 311 310 308 307 308 310 312 312 314 317 320 318 318 316 316 318 321 327 325 326 326
293 297 294 294 288 285 288 284 287 293 293 295 300 303 302 303 305 308 310 311 313 314 314 314 313 312 312 312 313 310 308 309 310 311 309 308 311 314 316 316 316 315 316 315 316 318 320 325 325
298 293 290 288 285 280 286 285 284 289 292 295 299 303 304 304 304 305 307 309 312 314 314 316 317 317 315 314 313 312 311 310 308 309 306 307 309 312 312 315 313 314 314 314 314 315 316 320 326
293 286 278 279 278 279 287 285 286 293 296 297 299 301 303 304 304 304 305 307 310 312 315 316 315 313 315 312 312 314 314 311 309 308 307 306 308 307 310 312 312 312 313 314 315 315 315 315 316
289 286 280 277 276 281 287 283 287 296 298 300 301 301 301 303 304 305 305 306 306 309 309 311 311 313 313 312 312 313 312 310 310 308 307 308 307 308 310 310 311 313 314 315 315 316 316 318 317
291 286 288 283 282 279 283 287 293 296 297 297 298 300 299 300 301 302 305 305 307 307 307 307 307 307 308 308 309 309 310 309 307 307 307 308 307 310 310 310 310 311 312 313 313 313 314 316 319
293 294 284 282 277 277 282 284 285 290 292 294 294 296 296 298 299 301 302 302 303 303 302 304 304 303 304 303 304 306 307 308 308 307 306 306 305 307 307 307 307 308 310 310 309 309 311 314 317
289 287 287 285 283 278 277 281 291 290 291 293 294 295 295 295 296 298 300 301 302 301 300 302 302 301 301 302 302 302 302 304 305 303 303 304 304 304 305 305 305 305 306 307 306 307 310 314 316
293 289 287 279 280 283 281 282 294 294 295 294 295 295 296 296 296 297 298 298 299 299 299 300 301 301 302 302 302 302 302 302 301 302 302 303 302 303 303 304 304 305 306 305 306 308 312 313 314
Wind_Speed
5 5 3 2 4 7 3 6 3 1 3 4 5 3 7 3 1 2 3 6 3 7 4 3 5 3 3 7 11 12 12 11 12 11 10 10 11 12 12 11 11 10 11 11 11 12 12 12 13
3 2 3 2 6 6 3 4 6 6 2 6 6 3 1 3 2 5 5 13 2 1 4 2 6 7 8 7 9 10 11 11 11 10 11 11 10 10 10 9 8 8 10 9 10 11 11 11 11
2 2 4 5 4 4 4 3 5 2 2 3 3 2 0 2 5 4 7 9 6 1 1 2 6 8 8 9 9 10 10 10 11 9 9 9 10 9 9 9 9 9 9 8 8 9 9 10 9
2 5 5 6 4 1 7 7 4 3 4 7 3 5 4 7 3 5 5 5 3 1 3 2 6 8 10 10 9 9 10 10 10 11 10 9 8 8 7 7 7 7 8 8 6 6 6 8 8
4 4 5 4 4 2 4 7 11 6 3 5 5 2 4 3 13 13 14 9 9 2 2 2 4 7 10 11 10 9 10 10 9 10 10 10 9 8 7 7 7 7 7 7 6 5 5 5 6
5 4 6 2 2 1 4 7 8 5 4 5 11 8 2 14 12 9 8 10 10 4 4 1 6 5 5 9 11 10 10 9 9 9 8 8 8 8 7 6 6 6 6 5 5 6 6 5 5
6 5 4 2 3 1 3 1 6 6 6 3 10 6 5 15 12 7 4 12 7 3 8 1 2 1 2 2 3 4 6 9 11 11 11 11 10 9 9 8 8 7 7 6 7 7 7 7 6
6 5 3 3 3 4 1 2 1 9 3 3 8 7 8 18 13 5 5 6 6 7 6 5 2 1 2 3 2 3 5 6 6 7 8 9 10 10 10 10 10 9 9 8 8 8 8 8 9
4 6 2 2 2 4 4 4 1 3 4 3 6 6 6 23 15 3 1 2 1 5 5 4 3 4 3 1 0 3 5 5 6 7 8 6 4 4 7 8 11 11 11 10 10 10 9 10 10
6 4 6 3 6 1 3 4 2 4 2 4 11 12 18 21 16 11 5 4 3 4 5 1 5 4 2 2 3 2 3 4 4 3 4 4 5 4 6 8 11 12 12 11 11 11 11 10 4
3 5 6 1 3 6 4 3 1 7 2 5 17 13 19 19 14 9 7 6 12 7 3 3 10 6 7 4 3 2 2 2 3 4 5 4 4 3 3 3 3 4 9 5 7 6 5 5 4
2 3 4 5 3 1 2 3 4 1 5 7 7 16 18 17 17 17 15 13 12 8 7 5 9 8 7 4 3 3 2 3 3 4 6 4 3 3 4 4 3 4 3 4 5 4 5 5 6
4 2 2 2 2 4 3 3 3 1 4 6 8 10 17 14 10 6 7 6 6 6 5 5 6 6 6 5 3 3 4 3 4 4 5 3 4 5 3 4 4 4 4 5 6 6 5 6 6
2 2 2 2 2 2 3 2 3 3 2 4 4 9 10 16 17 7 9 12 9 8 7 6 6 7 7 5 5 5 3 3 4 5 5 6 3 4 4 5 5 5 5 6 6 6 6 6 5
1 6 8 3 2 2 5 3 4 8 4 6 10 9 9 15 16 22 19 17 14 9 8 8 8 6 7 7 5 5 4 4 5 4 6 7 7 6 7 5 5 7 5 6 4 5 4 4 3
6 7 6 7 8 6 6 7 6 7 6 7 7 10 9 9 20 11 13 12 11 12 12 9 7 8 8 7 6 5 4 4 3 3 4 6 7 6 5 6 5 6 4 4 3 3 3 3 3
8 1 3 9 7 5 6 4 6 7 10 11 10 8 8 8 5 12 13 14 12 8 8 8 7 7 7 7 6 5 6 5 4 4 4 6 6 7 5 3 5 7 4 4 3 3 3 2 4
2 2 2 3 8 8 7 7 8 18 16 12 13 11 10 10 10 9 11 9 7 7 8 8 6 7 6 4 4 3 4 4 4 4 4 5 5 7 7 7 7 7 3 3 3 5 3 4 6
3 3 1 2 0 1 4 4 10 7 13 15 14 15 13 9 4 9 12 11 12 12 7 5 6 2 2 2 1 3 2 2 2 3 3 3 3 5 6 6 8 9 8 4 6 4 6 4 3
4 3 3 4 4 2 4 5 5 7 7 10 14 14 15 12 13 10 10 8 7 6 6 4 3 1 2 1 2 3 2 2 2 2 3 4 4 4 4 4 6 8 8 10 7 4 2 3 4
2 3 3 5 4 3 4 4 3 3 5 9 12 10 13 14 11 12 13 9 7 7 6 6 6 6 5 3 1 3 2 3 1 2 3 4 5 5 5 6 4 5 6 7 8 8 5 3 2
2 3 2 2 4 1 4 5 2 1 6 8 9 10 10 11 14 12 10 8 6 6 6 6 6 7 6 7 6 5 1 1 3 3 1 4 3 3 3 5 6 6 3 5 6 7 6 3 8
3 3 4 1 4 3 5 4 5 4 6 7 7 7 8 8 7 7 7 12 8 6 4 2 2 3 4 3 1 2 5 3 3 2 4 3 2 3 3 2 4 6 4 4 5 6 5 4 6
5 4 6 5 4 4 3 4 5 1 2 3 3 3 4 6 6 4 3 8 6 4 9 10 9 8 8 8 6 5 7 7 5 4 4 4 3 3 3 3 2 5 5 6 5 5 5 6 7
9 7 5 7 7 5 4 2 6 5 2 2 2 4 4 3 3 4 4 5 5 7 8 7 8 8 7 8 8 8 6 7 9 6 4 4 3 2 4 4 5 4 5 6 6 5 5 5 4
4 5 6 3 2 7 7 5 1 3 6 6 4 3 5 5 4 6 8 6 6 7 8 8 8 10 10 9 9 6 8 6 6 5 3 3 3 3 3 3 4 7 6 7 6 5 5 5 5
6 4 2 2 2 2 4 3 4 2 4 6 6 7 8 7 7 8 9 8 8 8 9 8 9 10 9 9 9 11 8 6 5 4 3 3 3 3 2 4 5 6 7 7 7 6 7 6 6
6 2 6 5 3 5 5 5 4 7 10 7 7 5 7 8 9 8 8 8 7 7 7 6 6 7 8 7 5 6 7 3 1 3 3 4 4 4 5 6 6 8 9 9 8 8 8 8 7
6 5 5 3 4 4 4 6 2 1 3 6 7 8 8 8 8 8 8 8 9 8 6 6 5 7 7 7 6 6 5 4 4 4 4 5 5 7 7 7 8 9 9 8 9 9 10 11 10
5 1 4 5 7 4 3 9 3 3 2 4 7 8 9 8 8 9 11 8 8 8 8 8 7 8 8 9 8 8 7 7 7 6 7 7 7 7 7 7 9 9 10 9 10 11 10 10 11
Wind_Direction
315 299 141 57 59 63 13 41 33 150 188 219 152 125 186 131 146 166 42 18 43 94 113 127 165 181 125 115 121 123 120 116 114 112 109 108 110 114 118 122 127 128 126 123 119 116 115 113 113
307 202 56 71 75 71 341 329 180 239 212 126 95 143 341 63 340 90 3 343 354 72 145 173 181 172 152 137 132 130 129 127 124 125 123 119 117 117 118 116 121 128 134 136 132 127 123 119 115
289 36 81 86 103 111 134 241 186 258 142 70 95 349 68 83 53 85 319 -0 326 5 153 172 188 176 164 147 148 141 140 139 137 139 136 133 133 134 138 140 143 150 154 153 149 140 134 130 128
48 11 26 77 126 295 135 179 200 154 277 247 230 84 75 9 86 148 132 32 335 248 199 211 200 187 161 158 157 155 157 155 153 154 155 156 150 148 155 157 159 166 168 167 166 159 152 145 145
39 57 56 60 3 210 119 178 168 186 212 136 173 102 69 37 156 162 126 188 201 230 333 319 240 217 166 161 167 172 170 167 166 173 172 174 171 165 176 180 177 183 183 184 185 195 190 173 168
36 92 51 65 276 279 340 151 159 162 140 129 100 112 111 169 173 182 144 206 98 127 136 245 218 232 202 174 175 178 178 183 182 183 188 191 187 182 185 198 204 206 204 205 207 216 230 226 207
101 75 165 238 342 170 180 168 152 139 150 148 151 100 128 180 227 229 244 30 4 91 126 105 338 298 270 322 300 264 212 193 189 191 191 196 199 199 197 204 211 219 223 228 232 236 240 247 246
102 87 29 345 349 46 81 249 135 131 176 146 167 148 172 193 214 245 59 18 10 51 95 133 135 80 68 48 9 341 319 298 274 249 222 213 205 207 209 206 216 217 225 228 239 244 254 256 257
118 58 21 338 57 289 333 141 296 8 89 23 33 135 149 152 176 214 35 143 284 97 107 146 165 110 57 34 65 34 332 296 296 297 288 272 280 254 234 230 225 226 226 230 234 239 243 250 259
89 95 203 223 166 134 8 88 8 69 32 34 92 63 121 147 165 181 178 194 111 122 95 33 151 127 155 302 60 22 335 289 264 260 282 279 268 264 254 247 247 240 235 234 235 240 242 248 250
141 172 187 227 197 186 145 36 76 125 319 215 135 130 145 161 169 186 199 173 150 154 118 95 129 108 121 135 121 58 334 299 272 269 254 249 259 250 255 258 249 240 243 235 232 238 238 231 237
73 110 162 197 218 78 96 103 71 49 221 178 162 141 152 168 173 175 173 166 166 164 154 133 135 147 136 124 122 121 63 18 4 304 269 239 255 260 257 257 255 250 249 248 232 225 223 230 230
66 343 107 166 186 156 126 55 112 143 110 143 166 142 158 155 160 156 129 126 140 148 150 159 138 125 119 103 91 73 43 25 351 351 336 264 253 259 255 255 243 238 213 227 239 230 220 226 228
281 249 343 111 261 292 118 54 6 153 222 197 238 195 171 165 170 144 162 161 167 158 171 174 142 134 132 113 102 84 66 48 30 4 354 2 314 280 262 256 248 248 230 228 232 236 233 228 220
159 14 359 33 336 205 122 9 252 61 47 312 265 243 204 159 176 177 178 170 166 168 162 164 136 128 111 113 106 85 61 63 40 21 10 6 8 353 328 278 263 255 242 237 236 247 265 279 253
30 50 15 314 354 3 90 251 4 10 21 325 250 238 229 209 182 179 172 169 174 165 172 172 150 146 132 115 101 112 111 83 66 56 21 22 14 11 342 339 300 278 235 207 209 208 265 256 247
9 49 358 332 15 351 55 341 334 343 6 345 332 281 298 309 128 178 183 178 179 166 143 133 130 132 123 119 115 97 74 66 70 39 27 22 4 357 357 332 311 311 244 229 207 183 166 253 270
256 23 342 346 328 16 25 347 317 23 27 359 349 314 288 262 213 185 184 183 175 162 134 128 130 131 116 96 88 74 83 80 65 64 55 27 354 353 353 345 346 333 308 245 205 213 192 204 245
108 90 107 253 294 146 43 294 15 13 30 18 13 357 337 281 300 55 30 24 8 4 53 109 122 138 102 61 90 66 70 49 39 39 61 69 5 356 1 2 356 355 351 304 227 222 208 232 238
72 93 342 297 323 96 8 57 98 16 15 28 25 20 16 35 47 57 74 47 30 25 13 4 18 56 348 320 253 111 125 3 335 1 348 24 10 355 39 25 1 360 351 350 324 278 269 234 172
95 118 229 224 328 2 46 28 34 15 28 31 26 39 50 47 49 38 43 29 39 39 16 5 343 342 315 301 290 72 71 80 17 347 322 352 354 352 19 14 15 359 4 345 338 326 298 276 256
38 327 268 247 74 283 45 266 298 330 3 38 20 25 16 46 88 75 66 57 50 30 58 37 18 351 314 332 330 35 349 292 218 174 250 305 339 325 5 5 355 352 2 356 339 333 300 305 277
256 1 333 15 98 87 347 76 251 2 9 5 22 20 20 26 16 25 117 135 133 112 80 53 342 264 270 287 7 345 310 284 304 314 298 311 283 264 318 22 343 338 334 315 313 323 323 286 272
304 341 40 48 72 45 274 103 290 303 357 347 47 57 31 13 15 19 353 343 322 189 171 186 188 232 235 253 279 239 249 254 267 269 287 297 305 304 321 347 337 311 305 314 303 290 292 299 296
38 46 354 6 11 224 263 338 245 355 47 12 102 54 46 1 327 285 302 330 318 329 320 314 300 276 276 273 256 256 243 257 240 239 240 252 277 282 316 346 333 310 295 292 291 290 275 269 265
15 100 138 291 227 251 317 252 93 77 26 357 25 37 29 7 319 326 325 323 318 323 317 304 309 317 323 324 309 272 238 228 243 233 246 249 241 256 274 315 307 298 297 297 287 287 282 272 258
324 27 219 142 341 41 270 102 276 2 12 6 337 18 359 348 350 342 324 318 322 314 305 305 304 295 291 287 289 288 278 245 241 257 223 214 233 254 277 299 290 278 279 276 282 284 281 282 265
91 268 22 8 356 305 293 289 256 344 355 343 6 19 348 348 347 340 324 302 283 277 288 305 315 296 297 305 325 314 307 300 249 189 194 218 246 251 268 275 272 277 279 276 275 281 276 269 270
3 19 40 111 149 218 297 258 204 272 358 345 342 335 322 310 301 294 285 286 292 303 310 296 299 282 285 285 279 279 285 294 277 255 248 235 233 243 245 247 260 274 273 261 271 272 275 271 273
137 227 115 114 279 237 216 274 154 145 4 323 308 300 293 285 290 288 293 273 279 285 301 297 284 271 274 265 254 254 256 248 244 243 242 245 249 252 249 248 259 269 267 263 263 269 269 270 275